"Pseudo-MPEC" for P10OMaO

Created 2019 Jun 17 18:07:39 UT using Find_Orb

Click here for an explanation of pseudo-MPECs

 
 Astrometry: 
     P10OMaO  C2019 05 31`iF$-Astrometry2a5dDw4d5Lr[S-TWu5pMkLc2,k9QR(oP2?D!kF52
     P10OMaO  C2019 06 02]D#kUxZL%wqR:jF./:9B/lHAeGBVcYTg%d?_6E\awvQoC`Y]yu%.F51
     P10OMaO  C2019 06 02A()a)=l_L3d6SJR`g)]sxY1=2`vu($$C-^:TDfAbVNf6M$/dQbD0F51
     P10OMaO  C2019 06 02savZ]qP_#4S12@SOP[;gbBEK,vgP,;k\OOTEE^^r74_WA4b)OLtDF51
     P10OMaO  C2019 06 072pe=V.8U7F\*8_WPMan*Ip3xi_L3rvx5RYwEh5ECK*[0a1]Ws+avF51
     P10OMaO  C2019 06 07VtOE4!2`xdO*CL)faO/gYjwt5QOtlKP@OTVa:Ti8#pBi1qxx*CP$F51
     P10OMaO  C2019 06 07ye/N9!Sju.sPd5jr;40r*,b;#:n-]De6ctOrF%Z@UxUyJpg4hKA*F51
     P10OMaO  C2019 06 07Axy5`\YKMBkx)cE.wecu@=Ej*Z2VUqwSp29,EeYg?K?Hhd1f)N;#F51
     P10OMaO  C2019 06 07k;mvOZ,*Q)]!oQ-:g[5l]Z?HHwLhWs,SJj^-M_V$Gpt4+cZ`G:%oF52
     P10OMaO  C2019 06 07;MF1y5Bs-NXre?y$v$KFR9,sl=hqf)x3nR6K/+A6Ja5O7mT7nCpAF52
     P10OMaO  C2019 06 07i3/:Sl9@`kvvp,n!'redacted;*LBtUYg/KgWH]y8JbRXUkxo6OFF52
     P10OMaO  C2019 06 07,[:bE4_?Cr`,C(dle=^jY64\T^L)*YdDu'Cc@,8W86_V($M@n-VJF52
     P10OMaO IC2019 06 07ul%Y?.cRMbM._6NVvf34rE^Pr$y%5I![N4]R,0nYSIF/Efv4iHY'L01
     P10OMaO IC2019 06 07yQ`xWOG20vFe3RqCF+;TacM:hpbGRax8_/AaAQ]BJt4mu?buM#8'L01
     P10OMaO KC2019 06 07*RoU;-V;ypJ@WFKnBhpVekuMf*Y*4eyCZpP71)-5#5O2W=PNso?HL01
     P10OMaO KC2019 06 07v`$s.n^b8sXB0CLq2)5HX!YO+-'JvA)V:7JRyK1_5Te,gnuiMvH[L01
     P10OMaO KC2019 06 070%[7)12fg$lXW.^CGsw2Z'/-.`0dA@CW1'hwm0#q5)0sL2G#D[B%L01
     P10OMaO KC2019 06 08j)3*9x3u]xKuJ5xu74$a*4..2i*843K'#DnS[GUaB%vu!h/YjJdXH21
     P10OMaO KC2019 06 08YLjV(jC.c$1aMdCtt*SZ7click.Hh8%,J^X;:4C_1+H6=cc[,7/jH21
     P10OMaO KC2019 06 09Sc%EKMy9@$yjW+1E)pW4rG+[dAB!P2.m7S??S2_12ONi5_irUF`'691
     P10OMaO KC2019 06 09GFb1A*fKqt?.N8'[Jfl6pt_Yo1hoKopKX[lG3A7vIO#^SD+j:%JS691
     P10OMaO KC2019 06 09_s'hiw8;/s-K@%_;5ek8#E\.iP49]M2!TkQl`:eG@+MYine5`i4w691
     P10OMaO KC2019 06 10w#Mee8Nfm(1xtK99sYx8xi`dXF-FC^IKJ?6GV/OBb#m!p@4n@md@Z84
     P10OMaO KC2019 06 101Bfi0Vl5Z2%wY[`cWH@K#7kk_fKRPkcrX[;B8bWrN6Iaq0$)2ET6Z84
     P10OMaO KC2019 06 106y[Oe-(;xkhVM]R?Ec7My;5K%9T78.'Nac$'p`vnQ%XWw!uiOt^dZ84
     P10OMaO  C2019 06 11EcWypa(x#kV*;/HEhZ!XVu!_o_#o[nQ0^O3),=xw.JvP+wP=.KrmF52
     P10OMaO  C2019 06 11u1qj3R8i]H(2[1rR0u*rE*XSGfXsY-**w=66as8i,tTXS0jS7m]IF52
     P10OMaO  C2019 06 11_52XH@=-q4Cau=d#ts[T75e(hVO%%On;Qp[n#S(!:X:vhereAhowF52
     P10OMaO KC2019 06 11akbCYrr9Q!WyboxVM+9NyqF:Gg\=CY$5uGHmsaxtsw6[GhltM+MV291
     P10OMaO KC2019 06 11HAWiWt27RGfyp4r12forF*07fWY2+-qa4'/U^R2Yd#1fje\$7G68291
     P10OMaO KC2019 06 11ROr1.*po!W)(@^@LKy7Ne#r*9vA`gYlAbdSqH#@#5J_U.(3YsbDP291
     P10OMaO  C2019 06 13.32297 16 53 55.11 +05 24 10.8    ~6D8M 20.2 GVNEOCPI52
     P10OMaO  C2019 06 13.32394 16 53 54.90 +05 24 03.3    ~6D8M 19.9 GVNEOCPI52
     P10OMaO  C2019 06 13.32636 16 53 54.50 +05 23 45.7    ~6D8M 20.1 GVNEOCPI52
     P10OMaO  C2019 06 13.32733 16 53 54.27 +05 23 39.1    ~6D8M 18.7 GVNEOCPI52
     P10OMaO KC2019 06 14ZNC1J)x]Ps:LK=*k@?;ZN$`07?]y34FVEJ:wbjpb^w3U'$Pt0NxpH21
     P10OMaO KC2019 06 1495ivi-dWTt$hSf2INq;'tV[nfdl6#explanation[S$3=[gl7FZjH21

Station data:
(291) LPL/Spacewatch II  (N31.961669 W111.599905)  US/Arizona.  Observers J.
   V. Scotti, R. S. McMillan. 1.8-m f/2.7 reflector + CCD.
(691) Steward Observatory, Kitt Peak - Spacewatch  (N31.962174 W111.600327)
   US/Arizona.  Observer J. V. Scotti. 0.9-m f/3 reflector + CCD.
(F51) Pan-STARRS 1, Haleakala  (N20.707235 W156.255910)  US/Hawaii.
   Observers N. Primak, A. Schultz, S. Watters, J. Thiel, T. Goggia. Measurer
   PS1 Science Consortium. 1.8-m Ritchey-Chrétien + CCD.
(F52) Pan-STARRS 2, Haleakala  (N20.707384 W156.255910)  US/Hawaii. 1.8-m
   Ritchey-Chrétien + CCD.
(H21) Astronomical Research Observatory, Westfield  (N39.483057 W87.968270)
   US/Illinois. 0.76-m f/3.0 astrograph + CCD.
(I52) Steward Observatory, Mt. Lemmon Station  (N32.442547 W110.788920)
   US/Arizona.  Observers T. A. Pruyne, B. M. Africano, E. J. Christensen, G.
   A. Farneth, D. C. Fuls, A. R. Gibbs, A. D. Grauer, H. Groeller, J. A.
   Johnson, R. A. Kowalski, S. M. Larson, G. J. Leonard, R. L. Seaman, F. C.
   Shelly. 1.0-m reflector + CCD.
(L01) Višnjan Observatory, Tičan  (N45.290900 E13.749300)  Croatia.
   Observers K. Korlević, E. Pettarin. Measurer E. Pettarin. 1.0-m f/2.9
   reflector + CCD.
(Z84) Calar Alto-Schmidt  (N37.224049 W2.548210)  Spain.

Orbital elements:  P10OMaO
   Perihelion 2019 Aug 3.228589 +/- 0.0248 TT =  5:29:10 (JD 2458698.728589)
Epoch 2019 Jun 14.0 TT = JDT 2458648.5   Earth MOID: 0.0323   Ma: 0.0644
M 331.10641623 +/- 0.056            (J2000 ecliptic)          AutoNEOCP
n   0.57524179 +/- 0.000832         Peri.  229.62656 +/- 0.015
a   1.43186615 +/- 0.00138          Node    87.52084 +/- 0.0013
e   0.3265010 +/- 0.000674          Incl.   16.56296 +/- 0.023
P   1.71/625.81d           H 24.7   G  0.15   U  8.0  
q 0.96436040 +/- 3.54e-5    Q 1.89937190 +/- 0.00279
From 37 observations 2019 May 31-June 14; mean residual 0".33
Residuals in arcseconds: 
190531 F52  .17-  .09-    190607 L01  .51-  .33-    190611 F52  .08+  .21+    
190602 F51  .03-  .08-    190607 L01  .20-  .85-    190611 F52  .05-  .22-    
190602 F51  .02-  .08+    190607 L01  .21+  .39-    190611 291  .05+  .13+    
190602 F51  .16-  .17+    190607 L01  .00   .26+    190611 291  .26+  .42+    
190607 F51  .12+  .18+    190608 H21  .01+  .14+    190611 291  .38+  .17+    
190607 F51  .09+  .19+    190608 H21  .00   .45-    190613 I52  .26+  .11-    
190607 F51  .10+  .24+    190609 691  .22+  1.1+    190613 I52  .42-  .42-    
190607 F51  .04-  .10+    190609 691  .35+  .54+    190613 I52  .26-  .08-    
190607 F52  .00   .17+    190609 691  .04+  .22-    190613 I52  1.2-  .51+    
190607 F52  .14+  .02-    190610 Z84  .31-  .61-    190614 H21  .43+  .03+    
190607 F52  .07+  .14+    190610 Z84  .16-  .19+    190614 H21  .09+  .17+    
190607 F52  .07+  .09-    190610 Z84  .17+  .81-    
190607 L01  .00   .08-    190611 F52  .13+  .47-    

Ephemerides (geocentric):
Date (UTC) HH   RA              Dec         delta   r     elong  mag " sig PA
---- -- -- --  -------------   -----------  ------ ------ -----  --- ---- ---
2019 06 17 18  16 40 13.316   -08 11 07.81  .05268 1.0652 158.7 19.5 1.64  29
2019 06 17 19  16 40 02.133   -08 22 19.77  .05247 1.0650 158.8 19.5 1.67  29
2019 06 17 20  16 39 50.856   -08 33 36.99  .05227 1.0649 158.8 19.4 1.71  29
2019 06 17 21  16 39 39.485   -08 44 59.51  .05207 1.0647 158.9 19.4 1.75  29
2019 06 17 22  16 39 28.018   -08 56 27.37  .05187 1.0645 159.0 19.4 1.79  28
2019 06 17 23  16 39 16.454   -09 08 00.61  .05167 1.0644 159.1 19.4 1.82  28
2019 06 18 00  16 39 04.791   -09 19 39.29  .05147 1.0642 159.1 19.4 1.86  28
2019 06 18 01  16 38 53.029   -09 31 23.43  .05127 1.0640 159.2 19.4 1.90  28
2019 06 18 02  16 38 41.165   -09 43 13.10  .05107 1.0639 159.3 19.4 1.94  28
2019 06 18 03  16 38 29.200   -09 55 08.32  .05087 1.0637 159.3 19.4 1.99  28
2019 06 18 04  16 38 17.131   -10 07 09.15  .05068 1.0636 159.4 19.4 2.03  28
2019 06 18 05  16 38 04.956   -10 19 15.63  .05048 1.0634 159.5 19.3 2.07  28
2019 06 18 06  16 37 52.676   -10 31 27.80  .05028 1.0632 159.5 19.3 2.11  28
2019 06 18 07  16 37 40.287   -10 43 45.70  .05009 1.0631 159.6 19.3 2.16  28
2019 06 18 08  16 37 27.789   -10 56 09.39  .04989 1.0629 159.7 19.3 2.20  27
2019 06 18 09  16 37 15.181   -11 08 38.90  .04970 1.0627 159.7 19.3 2.25  27
2019 06 18 10  16 37 02.460   -11 21 14.28  .04951 1.0626 159.8 19.3 2.29  27
2019 06 18 11  16 36 49.626   -11 33 55.57  .04932 1.0624 159.8 19.3 2.34  27
2019 06 18 12  16 36 36.676   -11 46 42.81  .04913 1.0623 159.9 19.3 2.39  27
2019 06 18 13  16 36 23.609   -11 59 36.06  .04894 1.0621 159.9 19.3 2.44  27
2019 06 18 14  16 36 10.424   -12 12 35.35  .04875 1.0619 160.0 19.3 2.49  27
2019 06 18 15  16 35 57.118   -12 25 40.73  .04856 1.0618 160.0 19.2 2.54  27
2019 06 18 16  16 35 43.691   -12 38 52.24  .04837 1.0616 160.1 19.2 2.59  27
2019 06 18 17  16 35 30.141   -12 52 09.92  .04818 1.0615 160.1 19.2 2.64  27
2019 06 18 18  16 35 16.465   -13 05 33.83  .04799 1.0613 160.2 19.2 2.70  27
2019 06 18 19  16 35 02.662   -13 19 03.99  .04781 1.0611 160.2 19.2 2.75  26
2019 06 18 20  16 34 48.731   -13 32 40.46  .04762 1.0610 160.3 19.2 2.81  26
2019 06 18 21  16 34 34.668   -13 46 23.27  .04744 1.0608 160.3 19.2 2.86  26
2019 06 18 22  16 34 20.474   -14 00 12.47  .04726 1.0607 160.3 19.2 2.92  26
2019 06 18 23  16 34 06.145   -14 14 08.11  .04707 1.0605 160.4 19.2 2.98  26
2019 06 19 00  16 33 51.680   -14 28 10.22  .04689 1.0603 160.4 19.2 3.04  26
2019 06 19 01  16 33 37.076   -14 42 18.84  .04671 1.0602 160.4 19.1 3.09  26
2019 06 19 02  16 33 22.333   -14 56 34.02  .04653 1.0600 160.4 19.1 3.16  26
2019 06 19 03  16 33 07.447   -15 10 55.79  .04635 1.0599 160.5 19.1 3.22  26
2019 06 19 04  16 32 52.416   -15 25 24.20  .04618 1.0597 160.5 19.1 3.28  26
2019 06 19 05  16 32 37.240   -15 39 59.29  .04600 1.0595 160.5 19.1 3.34  26
2019 06 19 06  16 32 21.914   -15 54 41.09  .04582 1.0594 160.5 19.1 3.41  26
2019 06 19 07  16 32 06.438   -16 09 29.65  .04565 1.0592 160.5 19.1 3.47  26
2019 06 19 08  16 31 50.809   -16 24 25.00  .04547 1.0591 160.5 19.1 3.54  25
2019 06 19 09  16 31 35.024   -16 39 27.19  .04530 1.0589 160.6 19.1 3.61  25
2019 06 19 10  16 31 19.081   -16 54 36.24  .04513 1.0587 160.6 19.1 3.67  25
2019 06 19 11  16 31 02.979   -17 09 52.19  .04496 1.0586 160.6 19.1 3.74  25
2019 06 19 12  16 30 46.714   -17 25 15.09  .04479 1.0584 160.5 19.0 3.81  25
2019 06 19 13  16 30 30.284   -17 40 44.96  .04462 1.0583 160.5 19.0 3.89  25
2019 06 19 14  16 30 13.686   -17 56 21.84  .04445 1.0581 160.5 19.0 3.96  25
2019 06 19 15  16 29 56.919   -18 12 05.77  .04428 1.0579 160.5 19.0 4.03  25
2019 06 19 16  16 29 39.978   -18 27 56.77  .04411 1.0578 160.5 19.0 4.11  25
2019 06 19 17  16 29 22.862   -18 43 54.88  .04395 1.0576 160.5 19.0 4.18  25